Location: Montreal
(45.5087°N, 73.5540°W)
Time: 22:24:56
(UTC-05:00)

N. Korean satellite - Visible Passes

Search period start: 15 December 2017 00:00
Search period end: 25 December 2017 00:00
Orbit: 461 x 513 km, 97.2° (Epoch: 15 December)

Date Brightness Start Highest point End Pass type
(mag) Time Alt. Az. Time Alt. Az. Time Alt. Az.
15 Dec 6.6 17:34:12 10° SSE 17:37:52 60° ENE 17:41:36 10° N visible
15 Dec 10.2 19:10:52 10° WSW 19:11:46 11° W 19:12:41 10° WNW visible
16 Dec 7.3 06:32:45 10° NNE 06:36:27 59° E 06:40:02 10° S visible
16 Dec 7.4 17:11:04 10° SE 17:14:24 32° ENE 17:17:47 10° N visible
16 Dec 9.4 18:45:13 10° SW 18:47:59 20° W 18:50:47 10° NW visible
17 Dec 8.8 06:09:28 10° NNE 06:12:47 30° E 06:16:02 10° SSE visible
17 Dec 8.1 16:48:23 10° ESE 16:51:01 18° ENE 16:53:40 10° NNE visible
17 Dec 8.3 18:20:49 10° SSW 18:24:16 36° W 18:27:46 10° NNW visible
18 Dec 9.8 05:46:37 10° NE 05:49:03 17° E 05:51:26 10° SE visible
18 Dec 6.9 17:56:56 10° S 18:00:38 70° W 18:04:25 10° NNW visible
19 Dec 6.6 06:55:32 10° N 06:59:13 70° WNW 07:02:49 10° SSW visible
19 Dec 6.6 17:33:24 10° SSE 17:37:05 60° ENE 17:40:49 10° N visible
19 Dec 10.2 19:09:57 10° WSW 19:10:59 11° W 19:12:01 10° WNW visible
20 Dec 7.3 06:32:00 10° NNE 06:35:38 58° E 06:39:11 10° S visible
20 Dec 7.4 17:10:16 10° SE 17:13:37 32° ENE 17:16:59 10° N visible
20 Dec 9.4 18:44:22 10° SW 18:47:11 20° W 18:50:01 10° NW visible
21 Dec 8.8 06:08:43 10° NNE 06:11:58 29° E 06:15:09 10° SSE visible
21 Dec 8.1 16:47:36 10° ESE 16:50:13 18° ENE 16:52:50 10° NNE visible
21 Dec 8.3 18:19:59 10° SSW 18:23:28 36° W 18:26:59 10° NNW visible
22 Dec 9.8 05:45:53 10° NE 05:48:13 16° E 05:50:31 10° SE visible
22 Dec 6.9 17:56:05 10° S 17:59:50 71° W 18:03:36 10° NNW visible
23 Dec 6.5 06:54:43 10° N 06:58:23 71° WNW 07:01:56 10° SSW visible
23 Dec 6.7 17:32:34 10° SSE 17:36:16 59° ENE 17:39:59 10° N visible
23 Dec 10.2 19:09:01 10° WSW 19:10:08 11° W 19:11:16 10° WNW visible
24 Dec 7.3 06:31:11 10° NNE 06:34:46 57° E 06:38:17 10° S visible
24 Dec 7.4 17:09:26 10° SE 17:12:47 31° ENE 17:16:08 10° N visible
24 Dec 9.4 18:43:30 10° SW 18:46:20 20° W 18:49:11 10° NW visible
